Regional Weather Roundup
Issued by NWS

Home | Current Version | Previous Version | Graphics & Text | Print | Product List | Glossary Off
Versions: 1 2 3 4 5 6 7 8 9 10 11 12 13 14 15 16 17 18 19 20 21 22 23 24 25 26 27 28 29 30 31 32 33 34 35 36 37 38 39 40 41 42 43 44 45 46 47 48 49 50

000
ASUS43 KDTX 021410
RWRMI
MICHIGAN HOURLY REGIONAL WEATHER ROUNDUP
NATIONAL WEATHER SERVICE DETROIT/PONTIAC MI
1000 AM EDT TUE SEP 02 2014

NOTE: "FAIR" INDICATES FEW OR NO CLOUDS BELOW 12,000 FEET WITH NO
SIGNIFICANT WEATHER AND/OR OBSTRUCTION TO VISIBILITY.

MIZ047>049-052>055-059>063-066>070-074>076-081>083-021500-
SOUTHEAST LOWER MICHIGAN

CITY           SKY/WX    TMP DP  RH WIND       PRES   REMARKS
ADRIAN         LGT RAIN  67  66  97 W5        29.89S FOG
ALMA           SUNNY     70  64  81 SW3       29.87S
ANN ARBOR      CLOUDY    70  66  87 CALM      29.87S
BAD AXE        CLOUDY    70  69  97 W6        29.85F
DETROIT CITY   CLOUDY    72  66  81 SW8       29.87S
DETROIT        LGT RAIN  69  67  93 S5        29.87F
FLINT          CLOUDY    73  65  75 W9        29.87S
GROSSE ILE     CLOUDY    72  68  88 SW3       29.86F
HILLSDALE      CLOUDY    71  69  92 W5        29.89R
HOWELL         CLOUDY    70  67  92 W6        29.88S

CITY           SKY/WX    TMP DP  RH WIND       PRES   REMARKS
JACKSON        CLOUDY    71  67  87 W6        29.88S
LAMBERTVILLE   CLOUDY    70  64  83 SW3       29.88S
LANSING        MOSUNNY   71  64  78 W7        29.88F
LAPEER         NOT AVBL
MASON          CLOUDY    70  65  85 W5        29.88S
MONROE         CLOUDY    72  66  83 SW5       29.85F
MT. CLEMENS    LGT RAIN  70  67  88 SW6       29.85F FOG
PONTIAC        CLOUDY    70  66  87 W7        29.87F
PORT HOPE        N/A     72  66  81 CALM      29.82F
PORT HURON     RAIN      68  68 100 S3        29.87S
TRI CITIES     MOSUNNY   70  64  81 SW7       29.87S
YPSILANTI      LGT RAIN  72  66  81 CALM      29.87F
$$
MIZ043>046-050>051-056>058-064>065-071>073-077>080-021500-
SOUTHWEST LOWER MICHIGAN

CITY           SKY/WX    TMP DP  RH WIND       PRES   REMARKS
BATTLE CREEK   PTSUNNY   72  66  81 W5        29.89S
BENTON HARBOR  MOSUNNY   72  64  76 VRB3      29.89R
BIG RAPIDS     SUNNY     68  64  85 NW7       29.88R
COLDWATER      CLOUDY    72  67  87 SW7       29.89R
HOLLAND        MOSUNNY   74  64  71 CALM      29.89S
GRAND RAPIDS   PTSUNNY   71  67  87 CALM      29.88S
KALAMAZOO      PTSUNNY   72  65  78 CALM      29.89R
MARSHALL       CLOUDY    70  67  89 NW5       29.88S
MUSKEGON       MOSUNNY   74  59  59 NW6       29.88R
$$
MIZ016>042-021500-
NORTHERN LOWER MICHIGAN

CITY           SKY/WX    TMP DP  RH WIND       PRES   REMARKS
ALPENA         SUNNY     70  60  70 W7        29.82S
BEAVER ISLAND  SUNNY     67  61  80 W10       29.83S
BELLAIRE       PTSUNNY   68  62  81 SW6       29.83S
CADILLAC       MOSUNNY   64  62  91 SW5       29.87R
CHARLEVOIX     SUNNY     68  63  82 W10       29.87R
FRANKFORT      SUNNY     69  61  74 W8        29.86R
GAYLORD        CLOUDY    62  60  93 SW10      29.85S
GRAYLING       CLOUDY    63  63 100 W3        29.87R FOG
HARBOR SPRINGS PTSUNNY   67  62  83 W5        29.83R
HOUGHTON LAKE  MOSUNNY   65  61  87 W8        29.87R
MANISTEE       SUNNY     66  59  77 W8        29.87S
OSCODA         SUNNY     69  65  86 CALM      29.83R
PELLSTON       SUNNY     70  62  76 SW7       29.82F
TRAVERSE CITY  MOSUNNY   70  59  68 W7        29.84S
$$
MIZ007>008-015-021500-
EASTERN UPPER MICHIGAN

CITY           SKY/WX    TMP DP  RH WIND       PRES   REMARKS
KINROSS        SUNNY     63  61  94 W5        29.81R
MACKINAC ISLAN SUNNY     65  63  93 W8        29.81S
NEWBERRY       SUNNY     64  58  82 W8G16     29.81R
S. S. MARIE    SUNNY     65  58  78 VRB5      29.80S
$$
MIZ004>006-011>014-085-021500-
CENTRAL UPPER MICHIGAN

CITY           SKY/WX    TMP DP  RH WIND       PRES   REMARKS
MANISTIQUE     SUNNY     65  57  74 CALM      29.83R
ESCANABA       MOSUNNY   63  55  77 W6        29.84R
MENOMINEE      SUNNY     63  55  77 CALM      29.84R
SAWYER-GWINN   SUNNY     59  54  82 SW6       29.82S
$$
MIZ001>003-009>011-084-021500-
WESTERN UPPER MICHIGAN

CITY           SKY/WX    TMP DP  RH WIND       PRES   REMARKS
IRON MOUNTAIN  PTSUNNY   61  54  77 W3        29.83R
HOUGHTON       MOSUNNY   61  54  77 W14       29.78S
COPPER HARBOR    N/A     65  53  65 N8        29.75S
$$

ABBREVIATIONS USED IN REMARKS
   TC - TEMPERATURE IN CELSIUS
  WCI - WIND CHILL INDEX
   HX - HEAT INDEX
  VSB - VISIBILITY




USA.gov is the U.S. government's official web portal to all federal, state and local government web resources and services.